Regional Weather Roundup
Issued by NWS Kansas City/Pleasant Hill, MO

Home | Current Version | Previous Version | Graphics & Text | Print | Product List | Glossary Off
Versions: 1 2 3 4 5 6 7 8 9 10 11 12 13 14 15 16 17 18 19 20 21 22 23 24 25 26 27 28 29 30 31 32 33 34 35 36 37 38 39 40 41 42 43 44 45 46 47 48 49 50

000
ASUS43 KEAX 011710
RWREAX

WEATHER ROUNDUP FOR EASTERN KANSAS AND NORTHWEST MISSOURI
NATIONAL WEATHER SERVICE KANSAS CITY/PLEASANT HILL MO
1100 AM CST SUN FEB 01 2015

KSZ040-057-103>105-MOZ028-029-037-043-011800-
...KANSAS CITY METROPOLITAN AREA...

CITY           SKY/WX    TMP DP  RH WIND       PRES   REMARKS
K.C. INTL      SNOW      33  32  96 NW13G20   29.79R VSB 1/2 WCI  24
K.C. DOWNTOWN  FLURRIES  34  32  92 NW13      29.79R WCI  25
LEES SUMMIT    LGT SNOW  33  31  92 NW14G21   29.78R FOG     WCI  23
OLATHE - IXD   LGT SNOW  32  31  96 W22G30    29.82R FOG     WCI  19
OLATHE - OJC   LGT SNOW  33  32  96 NW14      29.79R FOG     WCI  23
LAWRENCE       LGT SNOW  31  28  89 NW31G38   29.85R VSB 1   WCI  16

$$

MOZ001>008-011>017-020>025-030>033-038>040-044>046-053-054-011800-
...NORTHERN AND CENTRAL MISSOURI...

CITY           SKY/WX    TMP DP  RH WIND       PRES   REMARKS
ST. JOSEPH     LGT SNOW  30  27  88 NW24G35   29.83R FOG     WCI  16
MOSBY          LGT SNOW  34  32  93 NW10      29.77R WCI  26
WARRENSBURG    DRIZZLE   34  32  93 W10       29.75R WCI  26
WHITEMAN AFB   DRIZZLE   35  35  98 NW12      29.73R WCI  27
CLINTON        DRIZZLE   41  41 100 W10G16    29.73R WCI  35
SEDALIA        MIX PCPN  37  36  96 W8        29.72R FOG     WCI  31
WARSAW         NOT AVBL
MARSHALL       CLOUDY    37  37 100 W5        29.72S FOG     WCI  34
CHILLICOTHE      N/A     34  32  92 NW6       29.76R WCI  29
MOBERLY        LGT RAIN  36  32  87 W5        29.71S WCI  32
KIRKSVILLE       N/A     33  33 100 N6        29.72S FOG     WCI  28

$$

MOZ041-047>049-056>058-063>065-088>090-097-011800-
...EASTERN AND SOUTHERN MISSOURI...

CITY           SKY/WX    TMP DP  RH WIND       PRES   REMARKS
ST. LOUIS INTL LGT RAIN  39  36  89 S7        29.70F FOG     WCI  34
SPIRIT OF STL  LGT RAIN  38  37  97 CALM      29.69F FOG
COLUMBIA       CLOUDY    36  36 100 SW3       29.69S FOG
JEFFERSON CITY CLOUDY    39  37  92 SW3       29.71S
MEXICO         LGT RAIN N/A N/A N/A SW5       29.70F
HANNIBAL       LGT SNOW  37  34  87 CALM      29.71S VSB 1
ROLLA          CLOUDY    40  38  93 SW10      29.67F WCI  33
OSAGE BEACH    CLOUDY    41  37  87 SW6       29.71R
SPRINGFIELD    CLOUDY    44  41  89 W15G23    29.72S FOG
BRANSON        LGT RAIN  45  43  93 W9G18     29.75R FOG
NEVADA         CLOUDY    36  34  93 NW21G28   29.81R WCI  24
JOPLIN         CLOUDY    37  34  89 W22G29    29.83R WCI  26
WEST PLAINS    CLOUDY    46  43  89 W10G18    29.72F

$$

IAZ060-094-KSZ022-034>040-054-083-096-NEZ052-066-093-011800-
...KANSAS...SOUTHEAST NEBRASKA AND IOWA...

CITY           SKY/WX    TMP DP  RH WIND       PRES   REMARKS
TOPEKA         LGT SNOW  28  25  88 NW22G32   29.92R VSB 1   WCI  14
MANHATTAN      LGT SNOW  20  14  77 N15G37    30.03R WCI   6
EMPORIA        CLOUDY    25  20  81 NW28G39   29.95R WCI   9
CHANUTE        CLOUDY    32  27  81 NW29      29.90R WCI  18
WICHITA        CLOUDY    24  15  68 N32G44    30.05R WCI   6
OMAHA          SNOW      19  16  88 N30G38    30.02R VSB 1/2 WCI   0
LINCOLN        SNOW      15  10  80 N31G39    30.08R VSB 1/2 WCI  -6
FALLS CITY     LGT SNOW  24  20  84 NW21G33   29.91R VSB 3/4 WCI   9
LAMONI         SNOW      33  31  92 N10       29.76R VSB 1/2 WCI  25
DES MOINES     HVY SNOW  23  19  85 NE21G29   29.88R VSB 1/4 WCI   8

$$



USA.gov is the U.S. government's official web portal to all federal, state and local government web resources and services.